Regional Weather Roundup
Issued by NWS Sioux Falls, SD

Home | Current Version | Previous Version | Graphics & Text | Print | Product List | Glossary Off
Versions: 1 2 3 4 5 6 7 8 9 10 11 12 13 14 15 16 17 18 19 20 21 22 23 24 25 26 27 28 29 30 31 32 33 34 35 36 37 38 39 40 41 42 43 44 45 46 47 48 49 50

000
ASUS43 KFSD 221510
RWRFSD

WEATHER ROUNDUP FOR SE SOUTH DAKOTA/SW MINNESOTA/NW IOWA
NATIONAL WEATHER SERVICE SIOUX FALLS SD
1000 AM CDT MON MAY 22 2017

NOTE: "FAIR" INDICATES FEW OR NO CLOUDS BELOW 12,000 FEET WITH NO
SIGNIFICANT WEATHER AND OR OBSTRUCTIONS TO VISIBILITY.


SDZ038>040-050-052>070-221600-
SOUTHEAST SOUTH DAKOTA

CITY           SKY/WX    TMP DP  RH WIND       PRES   REMARKS
BROOKINGS      SUNNY     57  47  69 CALM      29.87F
CHAMBERLAIN    CLOUDY    54  49  85 NW16      29.94F
HURON          PTSUNNY   56  46  69 W14       29.89R
MADISON        FAIR      57  50  77 W8        29.88S
MITCHELL       MOSUNNY   59  46  62 W14       29.91R
SIOUX FALLS    PTSUNNY   62  49  62 VRB3      29.88F
WINNER         CLOUDY    55  46  71 NW9       29.96F
YANKTON        SUNNY     60  49  66 S12       29.92S
$$

MNZ071-072-080-081-089-090-097-098-221600-
SOUTHWEST MINNESOTA

CITY           SKY/WX    TMP DP  RH WIND       PRES   REMARKS
FAIRMONT       SUNNY     58  48  69 NW12      29.88F
JACKSON        SUNNY     57  46  67 N6        29.89S
LUVERNE        SUNNY     55  45  67 W3        29.89F
MARSHALL       SUNNY     56  43  61 CALM      29.89S
MONTEVIDEO     SUNNY     57  46  67 NE3       29.89R
PIPESTONE      SUNNY     59  39  47 CALM      29.88S
REDWOOD FALLS  SUNNY     57  43  59 N3        29.88S
TRACY          SUNNY     57  45  64 NE3       29.89S
WINDOM         SUNNY     57  46  67 NW7       29.89F
WORTHINGTON    SUNNY     58  48  69 W6        29.89F
$$

IAZ001>003-012>014-020>022-031-032-NEZ013-014-SDZ071-221600-
NORTHWEST IOWA

CITY           SKY/WX    TMP DP  RH WIND       PRES   REMARKS
CHEROKEE       SUNNY     61  52  72 W8        29.90S
DENISON        SUNNY     63  48  59 W10       29.94S
ESTHERVILLE    MOSUNNY   58  50  75 W10       29.88S
LE MARS        SUNNY     61  50  67 W10       29.91F
ORANGE CITY    SUNNY     59  54  82 W10       29.90S
SHELDON        SUNNY     59  50  72 W10         N/A
SIOUX CITY     SUNNY     63  51  65 W10       29.91S
SPENCER        SUNNY     60  50  69 NW8       29.89S
STORM LAKE     SUNNY     61  50  67 W14       29.90S
$$

ABBREVIATIONS USED IN REMARKS
   TC - TEMPERATURE IN CELSIUS
  WCI - WIND CHILL INDEX
   HX - HEAT INDEX
  VSB - VISIBILITY





USA.gov is the U.S. government's official web portal to all federal, state and local government web resources and services.